Weather History for KDEH - March, 2012

Change the Weather History Date:

Wednesday, March 14, 2012

  Actual Average Record
Temperature  
Mean Temperature 66 °F -  
Max Temperature 78 °F 40 °F 78 °F (2012)
Min Temperature 55 °F 24 °F -12 °F (1950)
Cooling Degree Days 2    
Growing Degree Days 16 (Base 50)    
Moisture  
Dew Point 53 °F    
Average Humidity 64    
Maximum Humidity 78    
Minimum Humidity 47    
Precipitation  
Precipitation 0.00 in - - ()
Sea Level Pressure  
Sea Level Pressure 29.88 in    
Wind  
Wind Speed 10 mph (South)    
Max Wind Speed 15 mph    
Max Gust Speed 26 mph    
Visibility 10 miles    
Events      
Averages and records for this station are not official NWS values.
T = Trace of Precipitation, MM = Missing Value Source: NWS Daily Summary

Daily Weather History Graph

Daily Weather History Graph

Search for Another Location

Airport or City:

Trip Planner

Search our weather history database for the weather conditions in past years. The results will help you decide how hot, cold, wet, or windy it might be!

Date:

Astronomy

Mar. 14, 2012 Rise Set
Actual Time 7:19 AM CDT 7:12 PM CDT
Civil Twilight 6:51 AM CDT 7:41 PM CDT
Nautical Twilight 6:18 AM CDT 8:14 PM CDT
Astronomical Twilight 5:44 AM CDT 8:48 PM CDT
Moon 1:59 AM CDT (3/14) 11:20 AM CDT (3/14)
Length of Visible Light 12h 49m
Length of Day
11h 52m
Waning Gibbous, 54% of the Moon is Illuminated
Mar 14
Waning Gibbous
Mar 14
Last Quarter
Mar 22
New
Mar 30
First Quarter
Apr 6
Full

Hourly Weather History & Observations

Time (CDT) Temp. Dew Point Humidity Pressure Visibility Wind Dir Wind Speed Gust Speed Precip Events Conditions
12:15 AM 55.4 °F 39.2 °F 54% 29.95 in 10.0 mi SE 10.4 mph - N/A   Clear
12:35 AM 55.4 °F 41.0 °F 58% 29.94 in 10.0 mi SSE 9.2 mph - N/A   Clear
12:55 AM 55.4 °F 42.8 °F 63% 29.93 in 10.0 mi SSE 9.2 mph - N/A   Clear
1:15 AM 55.4 °F 42.8 °F 63% 29.93 in 10.0 mi SE 8.1 mph - N/A   Clear
1:35 AM 55.4 °F 42.8 °F 63% 29.92 in 10.0 mi SE 8.1 mph - N/A   Clear
1:55 AM 55.4 °F 42.8 °F 63% 29.91 in 10.0 mi SE 8.1 mph - N/A   Clear
2:15 AM 55.4 °F 44.6 °F 67% 29.91 in 10.0 mi SE 8.1 mph - N/A   Clear
2:35 AM 55.4 °F 44.6 °F 67% 29.90 in 10.0 mi SSE 8.1 mph - N/A   Clear
2:55 AM 55.4 °F 44.6 °F 67% 29.89 in 10.0 mi SSE 8.1 mph - N/A   Clear
3:15 AM 55.4 °F 44.6 °F 67% 29.89 in 10.0 mi SSE 9.2 mph - N/A   Clear
3:35 AM 55.4 °F 44.6 °F 67% 29.88 in 10.0 mi SSE 9.2 mph - N/A   Clear
3:55 AM 55.4 °F 44.6 °F 67% 29.87 in 10.0 mi SSE 11.5 mph - N/A   Clear
4:15 AM 55.4 °F 44.6 °F 67% 29.86 in 10.0 mi SSE 12.7 mph - N/A   Clear
4:35 AM 55.4 °F 44.6 °F 67% 29.87 in 10.0 mi SSE 9.2 mph - N/A   Clear
4:55 AM 55.4 °F 44.6 °F 67% 29.87 in 10.0 mi SSE 8.1 mph - N/A   Clear
5:15 AM 59.0 °F 46.4 °F 63% 29.87 in 10.0 mi South 11.5 mph - N/A   Clear
5:35 AM 60.8 °F 46.4 °F 59% 29.87 in 10.0 mi South 11.5 mph 17.3 mph N/A   Clear
5:55 AM 60.8 °F 48.2 °F 63% 29.87 in 10.0 mi South 10.4 mph - N/A   Clear
6:15 AM 60.8 °F 48.2 °F 63% 29.87 in 10.0 mi South 10.4 mph - N/A   Clear
6:35 AM 60.8 °F 48.2 °F 63% 29.87 in 10.0 mi South 9.2 mph - N/A   Clear
6:55 AM 60.8 °F 50.0 °F 68% 29.87 in 10.0 mi South 10.4 mph - N/A   Clear
7:15 AM 60.8 °F 51.8 °F 72% 29.86 in 10.0 mi South 11.5 mph 16.1 mph N/A   Clear
7:35 AM 60.8 °F 51.8 °F 72% 29.87 in 10.0 mi South 9.2 mph - N/A   Clear
7:55 AM 62.6 °F 51.8 °F 68% 29.88 in 10.0 mi South 9.2 mph - N/A   Clear
8:15 AM 62.6 °F 51.8 °F 68% 29.87 in 10.0 mi South 10.4 mph 17.3 mph N/A   Clear
8:35 AM 62.6 °F 53.6 °F 72% 29.88 in 10.0 mi South 12.7 mph 19.6 mph N/A   Clear
8:55 AM 64.4 °F 53.6 °F 68% 29.88 in 10.0 mi South 10.4 mph 17.3 mph N/A   Clear
9:15 AM 64.4 °F 53.6 °F 68% 29.88 in 10.0 mi South 13.8 mph 19.6 mph N/A   Clear
9:35 AM 66.2 °F 55.4 °F 68% 29.87 in 10.0 mi South 12.7 mph 24.2 mph N/A   Clear
9:55 AM 66.2 °F 55.4 °F 68% 29.87 in 10.0 mi SSW 13.8 mph 18.4 mph N/A   Clear
10:15 AM 68.0 °F 57.2 °F 68% 29.87 in 10.0 mi SSW 10.4 mph 26.5 mph N/A   Clear
10:35 AM 69.8 °F 57.2 °F 64% 29.88 in 10.0 mi SSW 15.0 mph 23.0 mph N/A   Clear
10:55 AM 69.8 °F 57.2 °F 64% 29.88 in 10.0 mi SSW 12.7 mph 24.2 mph N/A   Scattered Clouds
11:15 AM 69.8 °F 57.2 °F 64% 29.89 in 10.0 mi SSW 13.8 mph 24.2 mph N/A   Mostly Cloudy
11:35 AM 69.8 °F 59.0 °F 68% 29.89 in 10.0 mi SSW 13.8 mph 23.0 mph N/A   Overcast
11:55 AM 69.8 °F 59.0 °F 68% 29.89 in 10.0 mi SW 11.5 mph 25.3 mph N/A   Overcast
12:15 PM 69.8 °F 59.0 °F 68% 29.89 in 10.0 mi SSW 11.5 mph 20.7 mph N/A   Overcast
12:35 PM 71.6 °F 59.0 °F 64% 29.89 in 10.0 mi SW 12.7 mph 19.6 mph N/A   Overcast
12:55 PM 71.6 °F 57.2 °F 60% 29.88 in 10.0 mi SSW 12.7 mph 17.3 mph N/A   Overcast
1:15 PM 71.6 °F 59.0 °F 64% 29.87 in 10.0 mi South 12.7 mph 19.6 mph N/A   Overcast
1:35 PM 73.4 °F 57.2 °F 57% 29.87 in 10.0 mi SSW 12.7 mph 19.6 mph N/A   Overcast
1:55 PM 73.4 °F 57.2 °F 57% 29.87 in 10.0 mi SSW 8.1 mph 17.3 mph N/A   Overcast
2:15 PM 73.4 °F 57.2 °F 57% 29.87 in 10.0 mi SSW 9.2 mph - N/A   Overcast
2:35 PM 75.2 °F 57.2 °F 53% 29.86 in 10.0 mi SSW 8.1 mph - N/A   Overcast
2:55 PM 75.2 °F 57.2 °F 53% 29.85 in 10.0 mi South 11.5 mph 19.6 mph N/A   Mostly Cloudy
3:15 PM 75.2 °F 57.2 °F 53% 29.84 in 10.0 mi South 6.9 mph 17.3 mph N/A   Mostly Cloudy
3:35 PM 77.0 °F 57.2 °F 50% 29.84 in 10.0 mi South 11.5 mph 18.4 mph N/A   Mostly Cloudy
3:55 PM 77.0 °F 57.2 °F 50% 29.85 in 10.0 mi SSW 11.5 mph 18.4 mph N/A   Mostly Cloudy
4:15 PM 78.8 °F 57.2 °F 47% 29.85 in 10.0 mi SSW 13.8 mph 19.6 mph N/A   Mostly Cloudy
4:35 PM 77.0 °F 57.2 °F 50% 29.85 in 10.0 mi South 9.2 mph 17.3 mph N/A   Mostly Cloudy
4:55 PM 75.2 °F 59.0 °F 57% 29.85 in 10.0 mi South 9.2 mph 17.3 mph N/A   Mostly Cloudy
5:15 PM 75.2 °F 60.8 °F 61% 29.85 in 10.0 mi South 11.5 mph 17.3 mph N/A   Scattered Clouds
5:35 PM 75.2 °F 60.8 °F 61% 29.86 in 10.0 mi South 8.1 mph 17.3 mph N/A   Mostly Cloudy
5:55 PM 73.4 °F 60.8 °F 65% 29.87 in 10.0 mi South 11.5 mph - N/A   Mostly Cloudy
6:15 PM 73.4 °F 60.8 °F 65% 29.87 in 10.0 mi South 9.2 mph - N/A   Overcast
6:35 PM 73.4 °F 60.8 °F 65% 29.88 in 10.0 mi South 8.1 mph - N/A   Mostly Cloudy
6:55 PM 71.6 °F 60.8 °F 69% 29.88 in 10.0 mi South 6.9 mph - N/A   Mostly Cloudy
7:35 PM 69.8 °F 60.8 °F 73% 29.88 in 10.0 mi South 6.9 mph - N/A   Scattered Clouds
7:55 PM 69.8 °F 60.8 °F 73% 29.89 in 10.0 mi South 6.9 mph - N/A   Scattered Clouds
8:15 PM 69.8 °F 60.8 °F 73% 29.89 in 10.0 mi South 6.9 mph - N/A   Clear
8:35 PM 68.0 °F 59.0 °F 73% 29.90 in 10.0 mi South 5.8 mph - N/A   Clear
8:55 PM 66.2 °F 59.0 °F 78% 29.89 in 10.0 mi South 4.6 mph - N/A   Clear
9:15 PM 66.2 °F 57.2 °F 73% 29.90 in 10.0 mi South 4.6 mph - N/A   Clear
9:35 PM 66.2 °F 57.2 °F 73% 29.90 in 10.0 mi South 4.6 mph - N/A   Clear
9:55 PM 64.4 °F 57.2 °F 77% 29.90 in 10.0 mi South 4.6 mph - N/A   Clear
10:15 PM 64.4 °F 57.2 °F 77% 29.91 in 10.0 mi SSE 3.5 mph - N/A   Clear
10:35 PM 64.4 °F 57.2 °F 77% 29.91 in 10.0 mi Calm Calm - N/A   Mostly Cloudy
10:55 PM 64.4 °F 57.2 °F 77% 29.91 in 10.0 mi Calm Calm - N/A   Mostly Cloudy
11:15 PM 64.4 °F 57.2 °F 77% 29.91 in 10.0 mi WNW 4.6 mph - N/A   Mostly Cloudy
11:35 PM 62.6 °F 57.2 °F 82% 29.91 in 10.0 mi Calm Calm - N/A   Mostly Cloudy
11:55 PM 64.4 °F 57.2 °F 77% 29.91 in 10.0 mi Calm Calm - N/A   Scattered Clouds